COSMOS 1782

Satellite information

Favourite Embed

Satellite Type and Status

PAYLOADIN ORBIT

Key statistics

Satellite COSMOS 1782 at a glance.

Uptime

14261

Days in orbit

Revolutions

≈ 15.3

Per day

Orbit

LEO

Low Earth Orbit

Inclination

82.5

Latest

Satellite identification and parameters

Extended collection of information and parameters for COSMOS 1782.

Object identification

Identified? True

Debris? False

Object name: COSMOS 1782

International designator: 1986-074A

Object number (NORAD): 16986

Object ID (CCSDS): 16986

Country: COMMONWEALTH OF INDEPENDENT STATES (CIS)

Current information (Y/N): Y

RCS size: LARGE

Orbital parameters

Period: 94.144 minutes

Inclination: 82.5303 deg

SMA: 6855.229 km

Apoapsis: 481.37 km

Periapsis: 472.818 km

RAAN: 24.9666 deg

Eccentricy: 0.00062379

Argument of periapsis: 13.331 deg

Mean anomaly: 346.8094 deg

Mean motion: 15.2957163 rev/day

Mean motion (dot): 0.00012593 rev/day2

B* drag term: 0.0004380039 1/REarth

Two-line elements (TLE)

Creation date: Oct. 15, 2025, 6:23 p.m.

Reference frame: TEME

Reference center: EARTH

Epoch: Oct. 15, 2025, 7:19 a.m. UTC

TLE line 0: 0 COSMOS 1782

TLE line 1: 1 16986U 86074A 25288.30553234 .00012593 00000-0 43800-3 0 9993

TLE line 2: 2 16986 82.5303 24.9666 0006238 13.3310 346.8094 15.29571630109054

Live tracking on map

Real-time ground track for satellite COSMOS 1782.

In-orbit conjunctions

A list of the most updated potential collisions computed for object COSMOS 1782.

Target Orbit TCA Probability of collision Miss distance Type
ARIANE 40+3 R/B SSO 2024-12-20 10:35:06 0.0002212184 91.0 (m) ROCKET BODY
SL-3 R/B LEO 2024-09-03 21:35:42 0.0001289228 325.0 (m) ROCKET BODY

Associated space launch

Tselina-D satellites provided detailed observation of radio sources detected by the smaller Tselina-O satellites as part of the Tselina ELINT system.

COSMOS 1782 was lifted into orbit during the mission ‘Tsiklon-3 | Tselina-D 57’, on board a Tsiklon-3 space rocket.

The launch took place on Sept. 30, 1986, 6:34 p.m. from 32/1.

For more information about the launch, click the button.

Launch to space Tsiklon-3 | Tselina-D 57
Tsiklon-3 | Tselina-D 57

Agency: N/A

Status: Launch Successful

Launch date: Sept. 30, 1986, 6:34 p.m. UTC

Rocket: Tsiklon-3

Launch pad: 32/1

Location: Plesetsk Cosmodrome, Russian Federation

...

Latest news about this satellite

There are no fresh news available about this satellite. Check back as we update our databases every day.


Newsletter sign-up

Weekly statistics, charts and insights to help you stay on top of the space industry.